STARLINK-33897, 63865

Orbit data source: Space-Track

STARLINK-33897, 63865 is a payload satellite owned by SpaceX/Seattle (US) in LEO that was launched on Sat, 10 May 2025 UTC via an FALCON 9 launch vehicle from the Air Force Western Test Range (AFWTR). Payload-class satellites include a variety of spacecraft equipped with specific instruments for various scientific and technological missions. These include communications satellites like Starlink; space stations such as the ISS; scientific satellites like the Hubble; Earth observation satellites from companies like Planet Labs, Umbra, and HawkEye 360; GPS; miniature CubeSats for education and research; and military/defense satellites.

Loading next visibility...
Identifier
63865, 2025-094B
Orbit
LEO
Country
Flag of USUS
Related business
Manufacturer
SpaceX/Seattle
Mission
Operational Commercial Communications
Bus & Motor
STARLINK V2MO, Unknown motor
Mass
575 kg wet, ~530 kg dry
Launch date (UTC)
2025-05-10 (1 year ago)
Launch vehicle
FALCON 9
Launch site
Air Force Western Test Range (AFWTR)
Object type
Payload
Rocket body
Debris
Shape & HBR
Box + 2 Pan, 17.7 m
Radar Cross Section
36.964 m², Large (>1 m²)

Expand to show TLE details & history
Last TLE update: 23 hours ago

TLE from 23 hours ago
0 STARLINK-33897
1 63865U 25094B   26170.90608915  .00004118  00000-0  35257-3 0  9991
2 63865  70.0019 336.7577 0003160 265.8190  94.2608 14.98344746 62733
Epoch: 2026-06-19T21:44Z
TLE epoch observation values (Epoch: 2026-06-19T21:44:46.102Z)
Latitude
-0.00003°
Longitude
102.43725°
Altitude
574.598 km
Speed
7.574 km/s
True Right ascension
22h 27m 01s
True Declination
0° 00' 00"
Sunlit
Object was in daylight at epoch
Visualization orbit readout
Latitude
Unknown
Longitude
Unknown
Altitude
Unknown
Speed
Unknown
Apparent Right ascension
Unknown
Apparent Declination
Unknown
Sunlit
N/A
Visualization observer readout
Local Sidereal Time
07:18:14
Azimuth
Unknown
Elevation
Unknown
Doppler factor
Unknown
Orbital elements
Apogee altitude
572.154 km
Perigee altitude
567.763 km
Semi-major axis
6,948.095 km
Eccentricity
0.00032
Inclination
70.0019°
RAAN
336.7577°
Arg. of periapsis
265.819°
True anomaly
94.29691°
Mean anomaly
94.2608°
Eccentric anomaly
94.27886°
Mean motion
3.74752 °/min
Orbital period
96.06 mins
BSTAR
0.00035257
Loading maneuver chart data...
Computing Atmospheric mass density...
Loading historical data...
Loading historical data...
Loading historical data...
Loading historical data...
Loading historical data...
Loading historical data...
Loading historical data...

Documentation

Showing up to 5 results
|